[[{"header":{"parameterUnit":"m.s-1","parameterCategory":1,"la1":30.2991,"la2":30.254,"lo1":-89.0895,"lo2":-89.0444,"dy":0.0017,"dx":0.0017,"nx":28,"ny":28,"refTime":"2023-09-02T09:00:00:Z","depth":0,"parameterNumber":2,"parameterNumberName":"U-component_of_WINDS"},"data":[0,0,0,0,0,0,0,0,0,0,0,0,0,0,0,0,0,0,0,0,0,0,0,0,0,0,0,0,0,0,0,0,0,0,0,0,0,0,0,0,0,0,0,0,0,0,0,0,0,0,0,0,0,0,0,0,0,0,-2.0277,-2.0277,0,-2.0298,-2.0299,-2.0299,-2.0321,-2.0321,-2.0321,-2.0322,-2.034,-2.0341,-2.0341,0,0,0,0,0,0,0,0,0,0,0,0,0,-2.0251,-2.0252,-2.0277,-2.0277,-2.0278,-2.0298,-2.0299,-2.0299,-2.0321,-2.0321,-2.0321,-2.0322,-2.034,-2.0341,-2.0341,0,0,0,0,0,0,0,0,0,0,0,0,0,-2.0266,-2.0252,-2.0277,-2.0291,-2.0293,-2.0298,-2.0299,-2.0299,-2.0321,-2.0321,-2.0322,-2.0322,-2.034,-2.034,-2.0341,-2.0333,0,0,-2.0342,-2.0342,0,0,0,0,0,0,0,0,-2.0265,-2.0267,-2.0289,-2.029,-2.0292,-2.0307,-2.0296,-2.031,-2.0321,-2.031,-2.0322,-2.0322,-2.0329,-2.033,-2.0333,-2.0334,-2.0335,-2.0342,-2.0342,-2.0342,-2.0342,0,0,0,0,0,0,0,-2.0264,-2.0266,-2.0285,-2.0289,-2.0291,-2.0295,-2.0298,-2.0299,-2.0316,-2.0311,-2.0313,-2.0315,-2.033,-2.0333,-2.0334,-2.0335,-2.0342,-2.0342,-2.0342,-2.0342,-2.0328,-2.0328,0,0,0,0,0,0,-2.0262,-2.0265,-2.0285,-2.0286,-2.028,-2.0295,-2.0298,-2.0302,-2.0316,-2.0319,-2.0314,-2.0316,-2.0332,-2.0333,-2.0334,-2.0324,-2.0342,-2.0342,-2.0343,-2.0329,-2.0328,-2.0327,0,0,0,0,0,0,-2.0261,-2.0263,-2.0284,-2.0276,-2.0279,-2.0295,-2.0299,-2.0302,-2.0305,-2.0319,-2.0322,-2.0315,-2.0332,-2.0334,-2.0333,-2.0325,-2.0343,-2.0343,-2.0329,-2.0328,-2.0328,-2.0306,0,0,0,0,0,0,-2.026,-2.0263,-2.0262,-2.0276,-2.028,-2.0284,-2.0299,-2.0302,-2.0306,-2.0308,-2.032,-2.0322,-2.0333,-2.0332,-2.0333,-2.0326,-2.0343,-2.033,-2.0329,-2.0328,-2.0307,-2.0304,-2.0302,0,0,0,0,0,-2.0259,-2.0255,-2.0261,-2.0264,-2.0278,-2.0283,-2.0285,-2.0298,-2.0305,-2.0303,-2.0312,-2.0322,-2.0326,-2.0332,-2.0333,-2.0326,-2.0331,-2.0329,-2.0328,-2.0308,-2.0305,-2.0302,0,0,0,0,0,0,-2.0238,-2.0257,-2.0265,-2.0265,-2.0272,-2.0287,-2.0285,-2.0294,-2.0299,-2.0301,-2.0315,-2.0318,-2.0314,-2.032,-2.0327,-2.0318,-2.033,-2.0329,-2.0314,-2.0311,-2.0308,-2.0306,-2.0343,0,0,0,0,0,-2.0234,-2.0238,-2.0253,-2.0252,-2.0255,-2.0269,-2.0272,-2.0281,-2.0289,-2.0292,-2.0301,-2.0307,-2.0309,-2.0311,-2.0314,-2.0308,-2.031,-2.0304,-2.0301,-2.0299,-2.0297,-2.0291,-2.0288,-2.0323,-2.0323,-2.0323,0,0,-2.0224,-2.0235,-2.0236,-2.0248,-2.0255,-2.0256,-2.0272,-2.0273,-2.0274,-2.0292,-2.0291,-2.0297,-2.0305,-2.0301,-2.03,-2.0306,-2.0288,-2.0297,-2.0295,-2.0295,-2.029,-2.0286,-2.0283,-2.0322,-2.0322,-2.0323,0,0,-2.0208,-2.0217,-2.0216,-2.0222,-2.0232,-2.0241,-2.0241,-2.0254,-2.0258,-2.0258,-2.0271,-2.0271,-2.0276,-2.028,-2.0283,-2.0265,-2.0273,-2.0265,-2.0251,-2.0245,-2.0242,-2.024,-2.0231,-2.0228,-2.0264,-2.0264,-2.0264,0,-2.0195,-2.0199,-2.0214,-2.0214,-2.0217,-2.0234,-2.0231,-2.0236,-2.0246,-2.0247,-2.0254,-2.0259,-2.0265,-2.0261,-2.0256,-2.0259,-2.0257,-2.0264,-2.0242,-2.0239,-2.0237,-2.0229,-2.0226,-2.0263,-2.0263,-2.0263,-2.0263,0,-2.0181,-2.0184,-2.0181,-2.019,-2.0194,-2.0192,-2.0205,-2.0206,-2.0214,-2.0222,-2.0219,-2.0228,-2.0231,-2.0231,-2.024,-2.0227,-2.023,-2.0239,-2.0251,-2.0233,-2.0225,-2.0222,-2.0261,-2.0262,-2.0262,-2.0262,0,0,-2.0153,-2.0169,-2.0168,-2.0171,-2.0182,-2.0184,-2.0182,-2.0186,-2.0186,-2.0192,-2.0189,-2.0191,-2.0199,-2.0202,-2.0211,-2.0206,-2.0188,-2.0215,-2.0215,-2.0208,-2.0171,-2.0163,-2.0159,-2.0194,-2.0193,-2.0193,-2.0169,0,-2.0137,-2.0137,-2.0148,-2.0143,-2.0144,-2.0158,-2.0156,-2.0162,-2.0168,-2.0168,-2.0175,-2.0176,-2.0187,-2.0188,-2.0184,-2.0191,-2.018,-2.0193,-2.0189,-2.0189,-2.0185,-2.0156,-2.0148,-2.0125,-2.0167,-2.0166,-2.0166,0,-2.0119,-2.0124,-2.0119,-2.0128,-2.0128,-2.0127,-2.013,-2.0131,-2.0136,-2.0141,-2.0143,-2.0152,-2.0149,-2.0161,-2.0154,-2.0163,-2.0162,-2.0164,-2.0163,-2.0162,-2.0175,-2.0151,-2.0119,-2.0114,-2.0162,-2.0162,-2.0163,0,-2.0097,-2.0102,-2.0099,-2.0101,-2.0112,-2.011,-2.0114,-2.012,-2.0121,-2.0123,-2.0123,-2.0125,-2.0125,-2.0125,-2.0134,-2.0142,-2.0125,-2.0139,-2.0127,-2.0127,-2.0122,-2.0122,-2.0087,-2.0125,-2.0125,-2.0125,-2.0125,0,-2.0077,-2.0073,-2.0088,-2.0086,-2.0081,-2.0093,-2.0087,-2.0093,-2.0097,-2.0095,-2.0107,-2.0104,-2.0117,-2.0114,-2.0121,-2.0113,-2.0114,-2.0115,-2.0117,-2.0113,-2.0113,-2.0112,-2.0113,-2.0124,-2.0124,-2.0124,-2.0124,0,-2.0051,-2.0062,-2.0059,-2.0069,-2.0071,-2.0066,-2.0074,-2.0071,-2.0077,-2.0074,-2.0074,-2.0083,-2.0081,-2.0089,-2.0089,-2.0093,-2.008,-2.0086,-2.0079,-2.0079,-2.0066,-2.0066,-2.0028,-2.0022,-2.0065,-2.0065,-2.0065,0,-2.0038,-2.0035,-2.0043,-2.0043,-2.0046,-2.0046,-2.0046,-2.0057,-2.0057,-2.0061,-2.0057,-2.0056,-2.0055,-2.005,-2.0056,-2.0054,-2.0058,-2.0044,-2.0058,-2.0053,-2.0055,-2.0054,-2.0052,-2.0041,-2.0041,-2.004,-2.004,0,-2.0011,-2.0016,-2.0017,-2.0018,-2.0018,-2.002,-2.0022,-2.0021,-2.0032,-2.0031,-2.0029,-2.0028,-2.0026,-2.0023,-2.0023,-2.0025,-2.0033,-2.0036,-2.0032,-2.0028,-2.0023,-2.0023,-2.0069,-2.0036,-2.0037,-2.0037,-2.0037,-2.0037,-1.999,-1.9987,-1.9992,-1.9991,-1.9994,-1.9995,-1.9992,-1.9997,-1.9996,-1.9995,-2.0002,-1.9997,-1.9999,-1.9999,-2.0,-1.9995,-2.0001,-1.9997,-1.9996,-1.9994,-1.9991,-2.0025,-1.9996,-1.9996,-1.9996,-1.9996,-1.9996,0,-1.9962,-1.9966,-1.9965,-1.9967,-1.9966,-1.9974,-1.9976,-1.9974,-1.997,-1.9972,-1.9971,-1.9966,-1.9963,-1.9968,-1.9964,-1.9959,-1.9963,-1.9958,-1.9957,-1.9957,-1.9987,-1.9989,-1.9955,-1.9955,-1.9955,-1.9955,-1.9955,-1.9955,-1.9948,-1.9942,-1.9946,-1.994,-1.9943,-1.9939,-1.9939,-1.9939,-1.994,-1.9935,-1.9932,-1.9935,-1.9937,-1.9934,-1.993,-1.9931,-1.9928,-1.9922,-1.9924,-1.9952,-1.9955,-1.9959,-1.9961,-1.9922,-1.9922,-1.9894,-1.9894,-1.9894]},{"header":{"parameterUnit":"m.s-1","parameterCategory":1,"la1":30.2991,"la2":30.254,"lo1":-89.0895,"lo2":-89.0444,"dy":0.0017,"dx":0.0017,"nx":28,"ny":28,"refTime":"2023-09-02T09:00:00:Z","depth":0,"parameterNumber":3,"parameterNumberName":"V-component_of_WINDS"},"data":[0,0,0,0,0,0,0,0,0,0,0,0,0,0,0,0,0,0,0,0,0,0,0,0,0,0,0,0,0,0,0,0,0,0,0,0,0,0,0,0,0,0,0,0,0,0,0,0,0,0,0,0,0,0,0,0,0,0,0.8474,0.8474,0,0.8532,0.8533,0.8534,0.8476,0.8474,0.8472,0.847,0.8531,0.8535,0.8539,0,0,0,0,0,0,0,0,0,0,0,0,0,0.8315,0.8318,0.8474,0.8474,0.8475,0.8532,0.8533,0.8534,0.8477,0.8474,0.8471,0.8469,0.853,0.8534,0.8539,0,0,0,0,0,0,0,0,0,0,0,0,0,0.838,0.8319,0.8473,0.8453,0.8452,0.8532,0.8533,0.8534,0.8477,0.8474,0.8471,0.8467,0.8528,0.8534,0.854,0.8643,0,0,0.8557,0.8559,0,0,0,0,0,0,0,0,0.8376,0.8386,0.8456,0.8455,0.8454,0.8494,0.85,0.8571,0.8478,0.8468,0.847,0.8466,0.8522,0.8528,0.8546,0.8645,0.8648,0.8557,0.8561,0.8563,0.8565,0,0,0,0,0,0,0,0.8372,0.8383,0.8497,0.8457,0.8456,0.8443,0.8448,0.8513,0.8513,0.8469,0.8465,0.8472,0.852,0.8541,0.8547,0.8649,0.8557,0.8562,0.8566,0.8568,0.884,0.8844,0,0,0,0,0,0,0.8369,0.8379,0.8495,0.8499,0.8406,0.8448,0.8454,0.8484,0.8512,0.8513,0.8475,0.8469,0.8533,0.8541,0.8549,0.8674,0.8563,0.8568,0.8572,0.8836,0.8841,0.8845,0,0,0,0,0,0,0.8366,0.838,0.8493,0.8438,0.8451,0.8455,0.8489,0.8487,0.8508,0.8517,0.8517,0.8496,0.853,0.8541,0.8621,0.8676,0.8571,0.8576,0.8832,0.8838,0.8843,0.8924,0,0,0,0,0,0,0.8362,0.8379,0.8417,0.8439,0.8454,0.8562,0.8492,0.8491,0.8517,0.851,0.8537,0.8538,0.8529,0.8613,0.8626,0.8681,0.858,0.8827,0.8834,0.8841,0.8917,0.8932,0.8945,0,0,0,0,0,0.8356,0.8437,0.842,0.8434,0.8502,0.8566,0.8574,0.8562,0.8522,0.8561,0.8568,0.8537,0.8667,0.8621,0.8636,0.8694,0.8823,0.8832,0.8841,0.891,0.8929,0.8945,0,0,0,0,0,0,0.8421,0.844,0.842,0.8511,0.8537,0.8556,0.8605,0.8582,0.862,0.8612,0.8595,0.8602,0.8687,0.8698,0.8646,0.8797,0.8739,0.8751,0.8787,0.8805,0.8819,0.8815,0.8585,0,0,0,0,0,0.8446,0.8495,0.8509,0.8588,0.8602,0.8602,0.8628,0.8617,0.8644,0.8655,0.8667,0.8695,0.8742,0.8774,0.8818,0.8918,0.8925,0.8965,0.898,0.8991,0.9002,0.906,0.9079,0.8874,0.8874,0.8873,0,0,0.8498,0.8514,0.8546,0.8601,0.862,0.8673,0.8611,0.8669,0.8708,0.8663,0.874,0.875,0.878,0.8872,0.8912,0.8884,0.9061,0.9002,0.9012,0.9016,0.9071,0.909,0.9108,0.888,0.8878,0.8878,0,0,0.862,0.8636,0.8705,0.8726,0.8756,0.8756,0.8773,0.8795,0.8801,0.8877,0.8846,0.8893,0.8974,0.8998,0.9021,0.9156,0.913,0.9171,0.9246,0.9302,0.9318,0.9333,0.9384,0.9402,0.9182,0.9182,0.9182,0,0.8681,0.8758,0.8743,0.8805,0.8831,0.8793,0.8864,0.8885,0.8929,0.8948,0.8915,0.9019,0.9036,0.9135,0.9168,0.9187,0.9207,0.9168,0.9317,0.9331,0.9345,0.9393,0.9412,0.9187,0.9186,0.9186,0.9185,0,0.8833,0.8888,0.894,0.8984,0.9016,0.9082,0.9078,0.9113,0.9099,0.9103,0.9183,0.9203,0.9252,0.9274,0.9261,0.9372,0.9354,0.9319,0.9261,0.9369,0.9415,0.9433,0.9194,0.9192,0.9191,0.9189,0,0,0.8997,0.9033,0.9053,0.9074,0.9106,0.9148,0.9214,0.9262,0.9293,0.9325,0.9381,0.9452,0.9422,0.9448,0.9437,0.9486,0.9596,0.9446,0.9447,0.9476,0.9724,0.9751,0.9772,0.9579,0.9582,0.9585,0.9722,0,0.9122,0.9235,0.9225,0.9333,0.9385,0.9351,0.9409,0.9436,0.9441,0.9488,0.9494,0.9546,0.95,0.9516,0.9563,0.9573,0.9646,0.9562,0.9633,0.9636,0.9628,0.9796,0.9824,0.9952,0.9739,0.9742,0.9744,0,0.9283,0.9322,0.9435,0.9462,0.9484,0.9535,0.9581,0.9624,0.9655,0.9656,0.9687,0.9669,0.9737,0.9677,0.9772,0.9715,0.9744,0.9753,0.9758,0.9765,0.9698,0.981,0.9992,1.0013,0.9772,0.9769,0.9767,0,0.9395,0.9475,0.9554,0.9572,0.9605,0.9643,0.9658,0.9686,0.9717,0.9756,0.9777,0.9824,0.9851,0.9888,0.9885,0.984,0.9983,0.9921,0.9988,0.9988,1.002,1.0019,1.0212,1.0035,1.0035,1.0035,1.0034,0,0.9537,0.9608,0.9605,0.9654,0.9734,0.9722,0.9802,0.9813,0.9839,0.9891,0.9864,0.9914,0.9904,0.9955,0.9952,1.0034,1.0045,1.005,1.0049,1.0053,1.0053,1.0073,1.0065,1.004,1.0039,1.0038,1.0037,0,0.9675,0.9675,0.976,0.9785,0.9793,0.9851,0.9873,0.9921,0.9925,0.9991,1.0006,1.0014,1.0072,1.0072,1.0138,1.0136,1.0237,1.0224,1.0227,1.0225,1.0293,1.0288,1.0508,1.0537,1.0339,1.0341,1.0342,0,0.9766,0.9821,0.9852,0.9885,0.9904,0.9957,0.9989,0.998,1.0015,1.0056,1.0099,1.0155,1.0199,1.0294,1.0306,1.0358,1.0348,1.0421,1.0355,1.036,1.0352,1.035,1.0357,1.0435,1.0437,1.0439,1.044,0,0.993,0.9928,0.9975,1.0023,1.0062,1.0099,1.0134,1.0163,1.0158,1.0199,1.0258,1.0293,1.0361,1.0418,1.0469,1.0486,1.0464,1.0461,1.048,1.0486,1.0487,1.049,1.0265,1.0456,1.0455,1.0453,1.0453,1.0452,1.0049,1.0098,1.0128,1.0182,1.0207,1.0241,1.0288,1.0299,1.0348,1.0403,1.0395,1.0463,1.0496,1.0561,1.0583,1.0637,1.0611,1.0638,1.0645,1.0652,1.0661,1.0477,1.0646,1.0645,1.0645,1.0644,1.0644,0,1.0214,1.0232,1.0282,1.0332,1.0376,1.035,1.0388,1.0426,1.0486,1.0518,1.0562,1.0633,1.0689,1.0706,1.0761,1.0801,1.0792,1.0816,1.0814,1.0819,1.0679,1.0659,1.0822,1.0822,1.0822,1.0822,1.0822,1.0822,1.0305,1.0386,1.0389,1.0483,1.0501,1.0567,1.0591,1.0623,1.0649,1.0729,1.0775,1.0786,1.0814,1.0871,1.0922,1.0926,1.0948,1.0977,1.0977,1.0846,1.0828,1.0811,1.0792,1.0981,1.0981,1.1112,1.1114,1.1115]}]]